Location: St. Louis
(38.6270°N, 90.1994°W)
Time: 12:26:59
(UTC-06:00)

S-56A Canister/Altair - Visible Passes

Search period start: 06 December 2021 00:00
Search period end: 16 December 2021 00:00
Orbit: 633 x 2500 km, 38.9° (Epoch: 05 December)

Date Brightness Start Highest point End Pass type
(mag) Time Alt. Az. Time Alt. Az. Time Alt. Az.
06 Dec 9.0 04:18:43 26° SSE 04:18:43 26° SSE 04:20:53 10° SE visible
06 Dec 11.1 19:19:10 10° SSE 19:23:42 14° SE 19:23:42 14° SE visible
06 Dec 11.2 21:18:22 10° SSW 21:21:09 17° SSW 21:21:09 17° SSW visible
07 Dec 10.0 03:48:00 14° SE 03:48:00 14° SE 03:48:41 10° SE visible
07 Dec 9.5 05:45:31 10° SW 05:46:29 11° SW 05:47:28 10° SSW visible
07 Dec 11.1 18:47:33 10° SSE 18:52:04 12° SE 18:53:06 12° SE visible
07 Dec 10.9 20:45:05 10° SSW 20:50:33 24° SSW 20:50:33 24° SSW visible
08 Dec 9.4 05:14:45 14° SW 05:14:45 14° SW 05:16:39 10° S visible
08 Dec 11.2 18:17:44 10° SE 18:18:58 10° SE 18:20:11 10° SE visible
08 Dec 10.6 20:11:53 10° SSW 20:19:57 30° S 20:19:57 30° S visible
08 Dec 11.5 22:16:30 10° WSW 22:17:24 12° WSW 22:17:24 12° WSW visible
09 Dec 9.6 04:44:06 14° S 04:44:06 14° S 04:45:07 10° S visible
09 Dec 10.4 19:38:46 10° SSW 19:49:20 32° SSE 19:49:20 32° SSE visible
09 Dec 11.1 21:42:52 10° SW 21:46:48 22° SW 21:46:48 22° SW visible
10 Dec 10.4 19:05:47 10° SSW 19:17:30 30° SE 19:18:44 29° SE visible
10 Dec 10.6 21:09:16 10° SW 21:16:11 33° SW 21:16:11 33° SW visible
11 Dec 10.5 18:32:57 10° S 18:44:15 27° SE 18:48:06 24° ESE visible
11 Dec 10.2 20:35:43 10° SW 20:45:33 45° SSW 20:45:33 45° SSW visible
11 Dec 11.6 22:42:30 10° WSW 22:42:59 11° WSW 22:42:59 11° WSW visible
12 Dec 10.7 18:00:17 10° S 18:11:01 24° SE 18:17:27 17° ESE visible
12 Dec 9.9 20:02:15 10° SW 20:14:53 53° S 20:14:53 53° S visible
12 Dec 11.1 22:08:42 10° WSW 22:12:20 21° WSW 22:12:20 21° WSW visible
13 Dec 11.0 17:27:50 10° S 17:37:48 21° SE 17:46:46 10° E visible
13 Dec 9.8 19:28:53 10° SW 19:43:03 52° SSE 19:44:12 51° SE visible
13 Dec 10.7 21:34:54 10° WSW 21:41:39 33° WSW 21:41:39 33° WSW visible
14 Dec 11.1 16:55:39 10° S 17:04:36 19° SE 17:13:06 10° E visible
14 Dec 10.0 18:55:36 10° SW 19:09:41 48° SSE 19:13:29 40° ESE visible
14 Dec 10.2 21:01:10 10° WSW 21:10:56 49° WSW 21:10:56 49° WSW visible
15 Dec 10.2 18:22:28 10° SSW 18:36:18 45° SE 18:42:44 29° E visible
15 Dec 9.8 20:27:29 10° WSW 20:40:11 67° SW 20:40:11 67° SW visible
15 Dec 11.3 22:35:07 10° W 22:37:37 17° W 22:37:37 17° W visible
